Location: Anuling
(14.1239°N, 120.8922°E)
Time: 04:21:45
(UTC+00:00)

Milstar 3 - Pass Details

Date: 14 January 2026
Orbit: 1100 x 5146 km, 28.2° (Epoch: 11 February)

Event Time Altitude Azimuth Distance (km) Brightness Sun altitude
Rises 10:58:06 0° 262° (W) 4,439 7.6 -17.1°
Reaches altitude 10° 11:00:34 10° 266° (W) 3,700 6.7 -17.7°
Maximum altitude 11:10:09 60° 346° (NNW) 2,480 4.5 -19.9°
Enters shadow 11:21:16 26° 56° (NE) 4,855 5.5 -22.4°
